This is the latest recevied weather packets stored in our database for station/object W8RD. If no packets are shown the sender has not sent any weather packets the latest 10 day(s).
| Time | Temp. | Humidity | Pressure | Rain* | Wind** | Luminosity | Snow |
|---|---|---|---|---|---|---|---|
| 1777343623 | 24.44° C | 69% | 1019.7 hPa | 0 mm | - | 0 W/m² | - |
| 1777343024 | 24.44° C | 69% | 1019.5 hPa | 0 mm | - | 0 W/m² | - |
| 1777342423 | 25° C | 69% | 1019.3 hPa | 0 mm | - | 0 W/m² | - |
| 1777341822 | 25° C | 68% | 1019.3 hPa | 0 mm | - | 0 W/m² | - |
| 1777341222 | 25° C | 68% | 1019.1 hPa | 0 mm | - | 0 W/m² | - |
| 1777340617 | 25° C | 68% | 1018.8 hPa | 0 mm | - | 0 W/m² | - |
| 1777340016 | 25.56° C | 67% | 1018.9 hPa | 0 mm | - | 0 W/m² | - |
| 1777339411 | 25.56° C | 66% | 1018.8 hPa | 0 mm | - | 0 W/m² | - |
| 1777338806 | 25.56° C | 65% | 1018.5 hPa | 0 mm | - | 0 W/m² | - |
| 1777338207 | 26.11° C | 64% | 1018.4 hPa | 0 mm | - | 0 W/m² | - |
| 1777337606 | 26.11° C | 63% | 1018.2 hPa | 0 mm | - | 0 W/m² | - |
| 1777337006 | 26.67° C | 63% | 1017.9 hPa | 0 mm | - | 0 W/m² | - |
| 1777336402 | 26.67° C | 63% | 1017.9 hPa | 0 mm | - | 0 W/m² | - |
| 1777335801 | 27.22° C | 62% | 1017.5 hPa | 0 mm | - | 0 W/m² | - |
| 1777335201 | 27.22° C | 60% | 1017.2 hPa | 0 mm | - | 1 W/m² | - |
| 1777334597 | 27.78° C | 60% | 1017.3 hPa | 0 mm | - | 2 W/m² | - |
| 1777333994 | 27.78° C | 59% | 1017.1 hPa | 0 mm | - | 6 W/m² | - |
| 1777333393 | 28.33° C | 57% | 1017.1 hPa | 0 mm | - | 11 W/m² | - |
| 1777332789 | 28.89° C | 56% | 1016.9 hPa | 0 mm | - | 19 W/m² | - |
| 1777332188 | 28.89° C | 55% | 1016.7 hPa | 0 mm | - | 29 W/m² | - |
| 1777331582 | 29.44° C | 54% | 1016.6 hPa | 0 mm | - | 36 W/m² | - |
| 1777330983 | 30° C | 53% | 1016.5 hPa | 0 mm | - | 33 W/m² | - |
| 1777330383 | 30° C | 51% | 1016.4 hPa | 0 mm | - | 53 W/m² | - |
| 1777329779 | 30.56° C | 50% | 1016.2 hPa | 0 mm | - | 56 W/m² | - |
| 1777329174 | 30.56° C | 50% | 1016.2 hPa | 0 mm | - | 73 W/m² | - |
* Rain latest hour (hover to see other rain measurements)
** Current wind speed in m/s (hover to see current wind gust speed)